Regional Weather Roundup
Issued by NWS

Home | Current Version | Previous Version | Text Only | Print | Product List | Glossary Off
Versions: 1 2 3 4 5 6 7 8 9 10 11 12 13 14 15 16 17 18 19 20 21 22 23 24 25 26 27 28 29 30 31 32 33 34 35 36 37 38 39 40 41 42 43 44 45 46 47 48 49 50

000
ASUS43 KOAX 221510
RWRNE

WEATHER ROUNDUP FOR NEBRASKA
NATIONAL WEATHER SERVICE OMAHA NE
1000 AM CDT MON SEP 22 2014

NOTES: SATELLITE DATA IS BEING USED TO AUGMENT CLOUD COVER ABOVE
       12000 FEET.
       "FAIR" INDICATES FEW OR NO CLOUDS BELOW 12,000 FEET WITH NO
       SIGNIFICANT WEATHER AND/OR OBSTRUCTIONS TO VISIBILITY.

  * THESE STATIONS DO NOT REPORT WEATHER SUCH AS RAIN...SNOW OR FOG.

NEZ001>004-019>022-054>056-221600-
NEBRASKA PANHANDLE

CITY           SKY/WX    TMP DP  RH WIND       PRES   REMARKS
SCOTTSBLUFF    PTSUNNY   62  45  53 SE12      30.15S
ALLIANCE       PTSUNNY   62  43  49 S17       30.15S
CHADRON        MOSUNNY   64  44  48 S20G26    30.10F
KIMBALL        LGT RAIN  56  47  71 S5        30.20R
SIDNEY         CLOUDY    61  43  51 S16       30.20S
$$

NEZ057>060-069>072-079>082-221600-
SOUTHWEST NEBRASKA

CITY           SKY/WX    TMP DP  RH WIND       PRES   REMARKS
NORTH PLATTE   CLOUDY    60  44  55 SE9       30.27R
IMPERIAL       PTSUNNY   64  41  42 S15       30.24S
LEXINGTON      CLOUDY    60  49  65 S10       30.30S
MCCOOK         SUNNY     65  45  48 S9        30.28S
OGALLALA       PTSUNNY   66  45  47 S12G17    30.22S
$$

NEZ005>010-023>029-035>040-094-221600-
NORTH CENTRAL NEBRASKA

CITY           SKY/WX    TMP DP  RH WIND       PRES   REMARKS
VALENTINE      PTSUNNY   64  44  48 S23       30.20F
AINSWORTH      MOSUNNY   61  45  56 S16G25    30.23S
BROKEN BOW     MOSUNNY   61  47  59 S13G20    30.28S
O`NEILL        MOSUNNY   62  51  67 S10       30.27S
ORD            MOSUNNY   59  50  72 S8        30.27F
THEDFORD       CLOUDY    62  45  52 S16G22    30.25S
$$

NEZ041-046>049-061>064-073>077-083>087-221600-
SOUTH CENTRAL NEBRASKA

CITY           SKY/WX    TMP DP  RH WIND       PRES   REMARKS
GRAND ISLAND   SUNNY     64  50  60 S9        30.31S
AURORA         SUNNY     60  49  67 S8        30.31S
HASTINGS       SUNNY     61  48  62 S8        30.31S
HEBRON         SUNNY     62  49  62 S6        30.33R
HOLDREGE       MOSUNNY   60  48  64 S9        30.30S
KEARNEY *      SUNNY     61  48  63 S13       30.31S
YORK           SUNNY     59  54  82 S6        30.32R
$$

NEZ011>018-030>034-042>045-221600-
NORTHEAST NEBRASKA

CITY           SKY/WX    TMP DP  RH WIND       PRES   REMARKS
NORFOLK        SUNNY     62  50  64 S9        30.29F
ALBION         SUNNY     60  50  68 S6        30.30S
BLAIR          SUNNY     62  51  67 SE7       30.31S
COLUMBUS *     SUNNY     57  48  72 CALM      30.32S
FREMONT        SUNNY     62  52  70 S8        30.32R
TEKAMAH        SUNNY     56  53  90 VRB5      30.31S
WAYNE          SUNNY     58  52  78 S3        30.31S
$$

NEZ050>053-065>068-078-088>093-221600-
SOUTHEAST NEBRASKA

CITY           SKY/WX    TMP DP  RH WIND       PRES   REMARKS
LINCOLN        SUNNY     58  51  78 S5        30.33S
OMAHA EPPLEY   MOSUNNY   60  50  69 S7        30.32S
BEATRICE       SUNNY     60  50  70 S6        30.32S
FALLS CITY     SUNNY     61  53  75 E6        30.32S
NEBRASKA CITY    N/A     60  46  58 SE6       30.32S
PLATTSMOUTH    SUNNY     61  49  65 SE7       30.32S
$$

NEZ044-045-051>053-067-221600-
OMAHA AREA

CITY           SKY/WX    TMP DP  RH WIND       PRES   REMARKS
OMAHA EPPLEY   MOSUNNY   60  50  69 S7        30.32S
BLAIR          SUNNY     62  51  67 SE7       30.31S
FREMONT        SUNNY     62  52  70 S8        30.32R
MILLARD        SUNNY     62  54  75 SE6       30.31S
OFFUTT AFB     SUNNY     57  57 100 E5        30.32R
PLATTSMOUTH    SUNNY     61  49  65 SE7       30.32S
WAHOO          FAIR      60  52  73 S6        30.32R
$$


USA.gov is the U.S. government's official web portal to all federal, state and local government web resources and services.